Home   Weather   Barrie   Past weeks

Flag for Canada Past Weather in Barrie, Ontario, Canada — Yesterday and Last 2 Weeks

43 °F

Light rain. Partly sunny.

Feels Like: 35 °F
Forecast: 41 / 45 °F
Wind: 16 mph from Northwest

Location: Borden

Current Time: Oct 24, 2016 at 12:01:39 PM

Latest Report: Oct 24, 2016 at 11:00 AM

Visibility: 9 mi

Pressure: 30.09 "Hg

Humidity: 81%

Dew Point: 37 °F

Location of BarrieLocation

Past Weather in Barrie — Graph


Barrie Temperature Yesterday

Maximum temperature yesterday: 52 °F (at 2:00 PM)
Minimum temperature yesterday: 43 °F (at 12:00 AM)
Average temperature yesterday: 47 °F

High & Low Weather Summary for the Past Weeks

High77 °F (Oct 18, 3:00 PM)100% (Oct 10, 12:00 AM)30.50 "Hg (Oct 10, 12:00 AM)
Low23 °F (Oct 10, 6:00 AM)33% (Oct 10, 4:00 PM)29.51 "Hg (Oct 18, 11:00 AM)
Average51 °F83%30.04 "Hg
* Reported Oct 9 11:00 AM — Oct 24 11:00 AM, Barrie, Weather by CustomWeather, © 2016

Note: Actual official high and low records may vary slightly from our data, if they occured in-between our weather recording intervals... More about our weather records


Barrie Weather History for the Previous 24 Hours

Scroll right to see more
Time TempWeatherWind HumidityBarometerVisibility
11:00 AM
Mon, Oct 24
43 °FLight rain. Partly sunny.16 mph81%30.09 "Hg9 mi
10:00 AM41 °FLight rain. Overcast.9 mph81%30.08 "Hg9 mi
9:00 AM41 °FOvercast.10 mph87%30.06 "Hg9 mi
8:02 AM39 °FOvercast.5 mph93%30.01 "Hg9 mi
7:00 AM41 °FLight rain. Overcast.5 mph93%30.01 "Hg9 mi
6:00 AM43 °FOvercast.5 mph87%29.98 "Hg9 mi
5:04 AM43 °FLight rain. Overcast.5 mph87%29.93 "Hg9 mi
4:00 AM43 °FOvercast.5 mph87%29.93 "Hg9 mi
3:00 AM45 °FOvercast.6 mph87%29.90 "Hg9 mi
2:00 AM46 °FOvercast.6 mph87%29.88 "Hg9 mi
1:00 AM46 °FOvercast.8 mph93%29.85 "Hg9 mi
12:03 AM46 °FLight rain. Passing clouds.6 mph87%29.83 "Hg9 mi
11:00 PM
Sun, Oct 23
45 °FPassing clouds.5 mph87%29.83 "Hg9 mi
10:00 PM46 °FPassing clouds.3 mph87%29.84 "Hg9 mi
9:00 PM43 °FPassing clouds.No wind93%29.85 "Hg9 mi
8:00 PM48 °FOvercast.3 mph82%29.85 "Hg9 mi
7:00 PM50 °FPassing clouds.3 mph76%29.85 "Hg9 mi
6:00 PM50 °FPartly sunny.5 mph76%29.84 "Hg9 mi
5:00 PM52 °FPassing clouds.5 mph67%29.83 "Hg9 mi
4:00 PM52 °FPartly sunny.5 mph67%29.85 "Hg9 mi
3:00 PM52 °FOvercast.5 mph62%29.86 "Hg9 mi
2:00 PM52 °FOvercast.8 mph62%29.86 "Hg9 mi
1:00 PM50 °FOvercast.8 mph62%29.88 "Hg9 mi
12:00 PM50 °FMore clouds than sun.6 mph67%29.88 "Hg9 mi
Weather by CustomWeather, © 2016

See weather overviewHow to use our weather pages